Regional Weather Roundup
Issued by NWS Sioux Falls, SD

Home | Current Version | Previous Version | Text Only | Print | Product List | Glossary Off
Versions: 1 2 3 4 5 6 7 8 9 10 11 12 13 14 15 16 17 18 19 20 21 22 23 24 25 26 27 28 29 30 31 32 33 34 35 36 37 38 39 40 41 42 43 44 45 46 47 48 49 50

000
ASUS43 KFSD 271710
RWRFSD

WEATHER ROUNDUP FOR SE SOUTH DAKOTA/SW MINNESOTA/NW IOWA
NATIONAL WEATHER SERVICE SIOUX FALLS SD
1200 PM CDT FRI MAY 27 2016

NOTE: "FAIR" INDICATES FEW OR NO CLOUDS BELOW 12,000 FEET WITH NO
SIGNIFICANT WEATHER AND OR OBSTRUCTIONS TO VISIBILITY.


SDZ038>040-050-052>070-271800-
SOUTHEAST SOUTH DAKOTA

CITY           SKY/WX    TMP DP  RH WIND       PRES   REMARKS
BROOKINGS      CLOUDY    63  58  83 SW8       29.78F
CHAMBERLAIN    RAIN      58  58  99 W12       29.83R
HURON          CLOUDY    63  59  87 SW12      29.79R THUNDER
MADISON        LGT RAIN  63  63 100 S8        29.79F
MITCHELL       CLOUDY    64  60  87 SW8       29.78F
SIOUX FALLS    LGT RAIN  68  58  70 VRB3      29.76F
WINNER         LGT RAIN  59  55  87 NW15      29.82F
YANKTON        PTSUNNY   66  57  72 SE5       29.74S
$$

MNZ071-072-080-081-089-090-097-098-271800-
SOUTHWEST MINNESOTA

CITY           SKY/WX    TMP DP  RH WIND       PRES   REMARKS
FAIRMONT       CLOUDY    66  59  77 SE15      29.77F
JACKSON        CLOUDY    68  55  64 S6        29.77F
LUVERNE        PTSUNNY   64  54  68 CALM      29.78F
MARSHALL       CLOUDY    70  56  61 S12       29.76F
MONTEVIDEO     PTSUNNY   75  57  53 SW10G16   29.77S
PIPESTONE      CLOUDY    68  57  68 SW7       29.77F
REDWOOD FALLS  CLOUDY    69  59  70 S12       29.76F
TRACY          MOSUNNY   69  56  63 SW7       29.77F
WINDOM         MOSUNNY   68  59  73 CALM      29.77F
WORTHINGTON    CLOUDY    66  58  75 SW9       29.78F
$$

IAZ001>003-012>014-020>022-031-032-NEZ013-014-SDZ071-271800-
NORTHWEST IOWA

CITY           SKY/WX    TMP DP  RH WIND       PRES   REMARKS
CHEROKEE       PTSUNNY   70  63  77 SW3       29.75F
ESTHERVILLE    CLOUDY    68  60  75 S9        29.77S
LE MARS        CLOUDY    68  59  73 CALM      29.76S
ORANGE CITY    SUNNY     70  57  64 S3        29.76S
SHELDON        PTSUNNY   68  59  73 VRB3      29.74F
SIOUX CITY     PTSUNNY   71  59  65 MISG      29.75F
SPENCER        PTSUNNY   69  58  67 E6        29.76F
STORM LAKE       N/A     70  59  68 SE8       29.76F
$$

ABBREVIATIONS USED IN REMARKS
   TC - TEMPERATURE IN CELSIUS
  WCI - WIND CHILL INDEX
   HX - HEAT INDEX
  VSB - VISIBILITY




USA.gov is the U.S. government's official web portal to all federal, state and local government web resources and services.